Other Public Products
Issued by NWS Charleston, SC

Home | Current Version | Previous Version | Text Only | Print | Product List | Glossary On
Versions: 1 2 3 4 5 6 7 8 9 10 11 12 13 14 15 16 17 18 19 20 21 22 23 24 25 26 27 28 29 30 31 32 33 34 35 36 37 38 39 40 41 42 43 44 45 46 47 48 49 50
000
FPUS82 KCHS 201627
OPUCHS

TEST...KCHS/KSAV Gateway Observations...TEST
National Weather Service Charleston SC
1100 AM EST FRI JAN 20 2017

NOTE: "fair" indicates few or no clouds below 12,000 feet with no
significant weather and/or obstructions to visibility.

SCZ050-WAZ558-NCZ071-TXZ119-213-PAZ071-DCZ001-FLZ074-172-MI076-
NYZ176-178-MAZ016-IL014-TNZ027-NJZ106-GAZ044-MD014-201700-
...Gateway Observations for Charleston International...

CITY           SKY/WX    TMP DP  RH WIND       PRES   REMARKS
Chas Airport   MOSUNNY   74  59  59 SW10G23   29.91F
Seattle        MOCLDY    47  32  56 E10       29.15F
Charlotte      LGT RAIN  56  53  90 CALM      29.91R
Dallas DFW     CLOUDY    61  39  44 SW14      29.68R
Dallas Love    PTSUNNY   59  39  47 SW6       29.71R
Philladelphia  CLOUDY    40  34  79 CALM      30.03R
Wash National  CLOUDY    46  40  79 CALM      29.96F
Baltimore      CLOUDY    40  40 100 E6        29.96F FOG     WCI  36
Miami          MOSUNNY   79  62  56 VRB5      30.04F
Detroit        LGT RAIN  37  36  96 E7        29.68R FOG     WCI  32
Newark         CLOUDY    43  32  65 VRB5      30.02R
Laguardia      CLOUDY    43  32  65 NE6       30.03R
J F K          CLOUDY    44  28  53 S3        30.05R
Boston Logan   CLOUDY    39  32  76 NE3       30.04S
Ft. Lauderdale MOSUNNY   77  63  61 SW7       30.02F
Chicago O`Hare CLOUDY    39  37  92 NE9       29.64S FOG     WCI  33
Chicago Midway CLOUDY    38  37  97 NE6       29.65S FOG     WCI  33
Houston Bush   CLOUDY    63  59  87 W5        29.84S
Houston Hobby  PTSUNNY   69  63  81 SW8       29.83S
Nashville      PTSUNNY   61  53  75 SW7       29.82R
Atlanta        PTSUNNY   69  58  67 SW14G21   29.89R

$$

GAZ044-118-TXZ119-213-NCZ071-DCZ001-MDZ014-506-PAZ021-071-NJZ106-
NYZ176-178-MAZ106-OHZ011-021-055-MIZ076-KYZ091-ILZ014-INZ047-
MNZ060-201700-
...Gateway Observations for Savannah International...

CITY           SKY/WX    TMP DP  RH WIND       PRES   REMARKS
Savannah Arpt  PTSUNNY   71  61  70 W12G21    29.92F
Atlanta        PTSUNNY   69  58  67 SW14G21   29.89R
Charlotte      LGT RAIN  56  53  90 CALM      29.91R
Dallas DFW     CLOUDY    61  39  44 SW14      29.68R
Houston Bush   CLOUDY    63  59  87 W5        29.84S
Wash National  CLOUDY    46  40  79 CALM      29.96F
Wash Dulles    CLOUDY    44  38  79 S6        29.93F
Baltimore      CLOUDY    40  40 100 E6        29.96F FOG     WCI  36
Philadelphia   CLOUDY    40  34  79 CALM      30.03R
Newark         CLOUDY    43  32  65 VRB5      30.02R
Laguardia      CLOUDY    43  32  65 NE6       30.03R
J F K          CLOUDY    44  28  53 S3        30.05R
Boston         CLOUDY    39  32  76 NE3       30.04S
Pittsburg      CLOUDY    45  45 100 S5        29.71F
Akron          LGT RAIN  46  43  89 S12       29.68S FOG
Cleveland      CLOUDY    48  43  82 S12       29.68S
Cincinnati     CLOUDY    56  53  90 SW13G20   29.73R
Columbus         N/A     55  55 100 SW16G23   29.71S
Detroit        LGT RAIN  37  36  96 E7        29.68R FOG     WCI  32
Chicago O`Hare CLOUDY    39  37  92 NE9       29.64S FOG     WCI  33
Minneapolis    CLOUDY    35  33  92 SE10      29.61F FOG     WCI  27
Indianapolis   DRIZZLE   52  51  97 SW12      29.70R FOG

$$




USA.gov is the U.S. government's official web portal to all federal, state and local government web resources and services.